Weather in Tohmajärvi

Finland     62°13′34″N   30°19′57″E
temp.,
°C
wind,
m/s
gust,
m/s
humid.,
%
clouds,
%
prec.,
mm/h
press.,
hPa
HPBL,
m
17 august, wed
wed1700:00+17se22823 0.0 102042
03:00+16se23818 0.0 101955
06:00+16ese26845 0.0 1019105
09:00+22sse366472 0.0 1018330
12:00+26sse585017 0.0 1017826
15:00+26sse5753100 0.0 1017876
18:00+25sse4106117 0.4 1016550
21:00+19s3128288 3.3 1016304
18 august, thu
thu1800:00+17sse299546 0.8 1016170
03:00+18s299591 2.1 1017226
06:00+18s249662 0.0 1018108
09:00+21ssw238749 1.6 1019151
12:00+23sse2582100 4.5 1020326
15:00+26s3458100 5.5 1020799
18:00+21sse2569100 0.0 1020123
21:00+19se2275100 0.0 102138
19 august, fri
fri1900:00+19se2474100 0.0 102180
03:00+18se278390 0.3 1022143
06:00+17se298763 0.0 1022169
09:00+22sse4969100 0.0 1022310
12:00+26sse475166 0.0 1023644
15:00+27sse4749100 0.0 1023792
18:00+25sse41156100 0.0 1023690
21:00+20sse3126684 0.0 1023292
20 august, sat
sat2000:00+17se3116913 0.0 1023209
03:00+16se310795 0.0 1024199
06:00+15se310885 0.0 1024184
09:00+21sse49685 0.0 1024438
12:00+24sse575363 0.0 1024953
15:00+24sse584599 0.0 1023960
18:00+22sse495250 0.0 1022889
21:00+17se296480 0.0 1022152
21 august, sun
sun2100:00+17se4126380 0.0 1021324
03:00+17sse4117918 0.0 1021717
06:00+16sse4118840 0.0 1020633
09:00+18sse5127699 0.0 1020840
12:00+22sse6135629 0.0 10191325
15:00+22sse5115365 0.1 1018979
18:00+23sse410515 0.0 1017902
21:00+18sse4126917 0.0 1018467